COSMOS 2251 DEB, 35445

Orbit data source: Space-Track

COSMOS 2251 DEB, 35445 is space debris in LEO originally from a launch on Wed, 16 Jun 1993 UTC launched from the Plesetsk Missile And Space Complex (PKMTR). The debris from Iridium 33, an American commercial communications satellite, has been tracked extensively since its accidental collision with the defunct Russian satellite Cosmos 2251 in 2009. This event, occurring at high speed in low Earth orbit (LEO), generated thousands of pieces of space debris, significantly increasing the risk of further collisions. The Iridium 33 debris cloud has impacted space traffic management and orbital debris mitigation strategies, making it a subject of ongoing study in space situational awareness.

Loading next visibility...
Identifier
35445, 1993-036AKP
Orbit
LEO
Country
Flag of CISCIS
Related business
Manufacturer
Unknown
Mission
Spacecraft
Bus & Motor
Unknown
Mass
Unknown
Launch date (UTC)
1993-06-16 (33 years ago)
Launch vehicle
Unknown
Launch site
Plesetsk Missile And Space Complex (PKMTR)
Object type
Payload
Rocket body
Debris
Shape & HBR
Unknown shape, 0.1 m
Radar Cross Section
Small (<0.1 m²)

Expand to show TLE details & history
Last TLE update: 2 days ago

TLE from 2 days ago
0 COSMOS 2251 DEB
1 35445U 93036AKP 26264.04274023  .00003761  00000-0  64698-3 0  9997
2 35445  74.0333 119.7837 0137549 136.8558 224.3488 14.62884001914531
Epoch: 2026-09-21T01:01Z
TLE epoch observation values (Epoch: 2026-09-21T01:01:32.755Z)
Latitude
-0.00008°
Longitude
104.46895°
Altitude
756.64 km
Speed
7.439 km/s
True Right ascension
07h 59m 08s
True Declination
0° 00' 00"
Sunlit
Object was in daylight at epoch
Visualization orbit readout
Latitude
Unknown
Longitude
Unknown
Altitude
Unknown
Speed
Unknown
Apparent Right ascension
Unknown
Apparent Declination
Unknown
Sunlit
N/A
Visualization observer readout
Local Sidereal Time
12:23:28
Azimuth
Unknown
Elevation
Unknown
Doppler factor
Unknown
Orbital elements
Apogee altitude
778.575 km
Perigee altitude
584.367 km
Semi-major axis
7,059.608 km
Eccentricity
0.01375
Inclination
74.0333°
RAAN
119.7837°
Arg. of periapsis
136.8558°
True anomaly
223.26045°
Mean anomaly
224.3488°
Eccentric anomaly
223.80329°
Mean motion
3.65908 °/min
Orbital period
98.39 mins
BSTAR
0.00064698
Loading maneuver chart data...
Computing Atmospheric mass density...

Documentation

Showing up to 5 results
|